Regional Weather Roundup
Issued by NWS

Home | Current Version | Previous Version | Graphics & Text | Print | Product List | Glossary On
Versions: 1 2 3 4 5 6 7 8 9 10 11 12 13 14 15 16 17 18 19 20 21 22 23 24 25 26 27 28 29 30 31 32 33 34 35 36 37 38 39 40 41 42 43 44 45 46 47 48 49 50
000
ASUS43 KLOT 221300
RWRIL

ILLINOIS REGIONAL WEATHER ROUNDUP
NATIONAL WEATHER SERVICE CHICAGO/ROMEOVILLE IL
800 AM CDT MON SEP 22 2014

NOTE: "FAIR" INDICATES FEW OR NO CLOUDS BELOW 12,000 FEET WITH NO
SIGNIFICANT WEATHER AND/OR OBSTRUCTIONS TO VISIBILITY.

* THESE STATIONS ARE NOT UNDER NWS QUALITY CONTROL. THEY ALSO MAY NOT
  REPORT WEATHER SUCH AS PRECIPITATION OR FOG.

ILZ001-002-007-009-015-016-024-221400-
NORTHWEST ILLINOIS

CITY           SKY/WX    TMP DP  RH WIND       PRES   REMARKS
MOLINE         SUNNY     46  44  93 CALM      30.30R
STERLING*      SUNNY     48  43  81 CALM      30.29R
$$

ILZ003-004-008-010-011-017-018-221400-
NORTH CENTRAL ILLINOIS

CITY           SKY/WX    TMP DP  RH WIND       PRES   REMARKS
ROCKFORD       SUNNY     46  42  86 CALM      30.30R
$$

ILZ005-006-012>014-019>023-221400-
NORTHEAST ILLINOIS

CITY           SKY/WX    TMP DP  RH WIND       PRES   REMARKS
CHICAGO-OHARE  MOSUNNY   48  40  73 N6        30.26R
CHICAGO-MIDWAY MOSUNNY   51  43  74 NW9       30.26R
AURORA         SUNNY     45  41  86 CALM      30.28R
WAUKEGAN       SUNNY     47  39  74 NW5       30.25S
DUPAGE AIRPORT SUNNY     47  41  80 NW5       30.27R
WHEELING       SUNNY     49  42  77 NW5       30.27R
NORTHERLY ISL    N/A     53  45  74 N8          N/A
$$

LMZ740>746-221400-
SOUTHERN LAKE MICHIGAN

STATION/POSITION SKY/WX   TEMP    WIND        PRES    VSBY  WAVE
                          AIR SEA DIR/SP/G                  HT/PER
                          (F)     (DEG/KT/KT) (MB)    (MI)  (FT/S)
SOUTHERN BUOY              53 61  340/ 12/ 16 1023.9R         5/ 8
WAUKEGAN HARBOR            48     340/  5/  7   N/A
HARRISON CRIB              51     320/ 15/ 18   N/A
BURNHAM HARBOR             53     340/  7/  8   N/A
CALUMET HARBOR             50     290/  4/  6 1023.2R
MICHIGAN CITY              49      90/  5/  7   N/A
MICHIGAN CITY 6N           51 63  100/  8/ 12   N/A           6/ 7
ST. JOSEPH                 50 65   80/  6/  8   N/A           5/ 7
$$

ILZ025>027-034>036-040-047-049-050-058-095>099-221400-
WEST-CENTRAL ILLINOIS

CITY           SKY/WX    TMP DP  RH WIND       PRES   REMARKS
QUINCY         SUNNY     51  48  89 N3        30.29R
$$

ILZ028>032-037-038-041>044-048-051>054-059>061-221400-
CENTRAL ILLINOIS

CITY           SKY/WX    TMP DP  RH WIND       PRES   REMARKS
DECATUR        SUNNY     53  48  83 N5        30.28R
PEORIA         SUNNY     50  45  83 CALM      30.29R
SPRINGFIELD    SUNNY     52  48  86 NE3       30.28R
TAYLORVILLE    NOT AVBL
$$

ILZ033-039-045-046-055>057-062-063-221400-
EAST-CENTRAL ILLINOIS

CITY           SKY/WX    TMP DP  RH WIND       PRES   REMARKS
CHAMPAIGN      MOSUNNY   49  46  90 N7        30.27R
MATTOON        SUNNY     50  47  89 N6        30.25R
$$

ILZ079-100>102-221400-
SOUTHWEST ILLINOIS

CITY           SKY/WX    TMP DP  RH WIND       PRES   REMARKS
ALTON          SUNNY     52  50  93 N5        30.27R
BELLEVILLE     SUNNY     55  52  91 N6        30.27R
CAHOKIA*       SUNNY     54  52  93 CALM      30.27R
$$

ILZ064>066-069>071-074>076-080>082-084>086-088>090-092>094-221400-
SOUTH-CENTRAL ILLINOIS

CITY           SKY/WX    TMP DP  RH WIND       PRES   REMARKS
CARBONDALE     SUNNY     53  50  89 VRB3      30.25R
MARION         SUNNY     54  52  94 N6        30.26R
MT. VERNON     SUNNY     52  46  82 CALM      30.26S
$$

ILZ067-068-072-073-078-083-087-091-221400-
SOUTHEAST ILLINOIS

CITY           SKY/WX    TMP DP  RH WIND       PRES   REMARKS
LAWRENCEVILLE  SUNNY     54  52  93 N5        30.25R
$$

ABBREVIATIONS USED IN REMARKS
   TC - TEMPERATURE IN CELSIUS
  WCI - WIND CHILL INDEX
   HX - HEAT INDEX
  VSB - VISIBILITY
$$



USA.gov is the U.S. government's official web portal to all federal, state and local government web resources and services.